Regional Weather Roundup
Issued by NWS Charleston, SC

Current Version | Previous Version | Text Only | Print | Product List | Glossary Off
Versions: 1 2 3 4 5 6 7 8 9 10 11 12 13 14 15 16 17 18 19 20 21 22 23 24 25 26 27 28 29 30 31 32 33 34 35 36 37 38 39 40 41 42 43 44 45 46 47 48 49 50

000
ASUS42 KCHS 240527
RWRCHS

REGIONAL WEATHER ROUNDUP
NATIONAL WEATHER SERVICE CHARLESTON SC
100 AM EDT SUN MAY 24 2015

NOTE: "FAIR" INDICATES FEW OR NO CLOUDS BELOW 12,000 FEET WITH NO
SIGNIFICANT WEATHER AND/OR OBSTRUCTIONS TO VISIBILITY.

NOT ALL STATIONS ARE QUALITY CONTROLLED BY THE NATIONAL
WEATHER SERVICE. USE DATA WITH CAUTION...ESPECIALLY
DEWPOINT OBSERVATIONS.

SCZ027-030-031-034>040-042>050-240600-
...SOUTHEAST SOUTH CAROLINA...

CITY           SKY/WX    TMP DP  RH WIND       PRES   REMARKS
N CHARLESTON   CLEAR     65  60  84 E3        30.35S
WATERFRONT PAR   N/A     74  62  66 E15       30.32F
MOUNT PLEASANT FAIR      72  57  60 E6        30.34F
JOHNS ISLAND   CLEAR     73  61  64 E9        30.34F
PINOPOLIS        N/A     70  63  78 E6        30.29R
MONCKS CORNER  FAIR      64  61  88 CALM      30.35S
SUMMERVILLE    FAIR      61  61 100 CALM      30.35F
BEAUFORT MCAS  PTCLDY    73  62  68 E7        30.33F
BEAUFORT ARPT  FAIR      72  63  73 E9        30.32F
HILTON HEAD IS PTCLDY    73  63  68 NE6       30.33F
WALTERBORO     CLEAR     63  59  88 E5        30.34F
ALLENDALE      FAIR      68  61  77 CALM      30.33F

...SOUTHERN MIDLANDS AND PEE DEE...

CITY           SKY/WX    TMP DP  RH WIND       PRES   REMARKS
GEORGETOWN     NOT AVBL
KINGSTREE      NOT AVBL
ORANGEBURG     CLEAR     64  57  78 CALM      30.36S
BARNWELL       FAIR      68  61  77 E6        30.35F
AIKEN          FAIR      63  54  72 SE5       30.38S
MANNING        FAIR      57  52  82 CALM      30.35F
COLUMBIA       CLEAR     66  53  63 E5        30.35S
SUMTER         NOT AVBL
FLORENCE       CLEAR     62  56  80 CALM      30.37F
MYRTLE BEACH   CLEAR     73  54  49 SE9       30.38S
N MYRTLE BEACH CLEAR     73  58  59 VRB5      30.36F

$$

GAZ063-065-086>088-099>101-113>116-118-119-134>141-150-240600-
...SOUTHEAST GEORGIA...

CITY           SKY/WX    TMP DP  RH WIND       PRES   REMARKS
SAVANNAH ARPT  MOCLDY    72  61  68 E8        30.32F
HUNTER AAF     NOT AVBL
FORT STEWART   NOT AVBL
STATESBORO     MOCLDY    68  64  88 E3        30.33S
SYLVANIA       CLEAR     67  64  88 E6        30.33F
CLAXTON        MOCLDY    66  63  88 CALM      30.31F

...CSRA...CENTRAL AND FAR SOUTHEAST GEORGIA...

CITY           SKY/WX    TMP DP  RH WIND       PRES   REMARKS
THOMSON        CLEAR     69  61  77 SE3       30.38S
AUGUSTA-BUSH   CLEAR     61  55  81 CALM      30.34S
AUGUSTA-DANIEL CLEAR     69  56  62 SE5       30.35S
SWAINSBORO     FAIR      70  64  83 E3        30.32F
VIDALIA        CLEAR     68  63  83 E7        30.31F
EASTMAN        FAIR      69  64  85 SE3       30.32F
HAZLEHURST     FAIR      70  65  82 E5        30.29S
ALMA           CLEAR     68  64  87 E3        30.29S
WAYCROSS       PTCLDY    70  67  91 E5        30.28S
JESUP          CLOUDY    72  68  88 NE3       30.29S
BAXLEY         FAIR      68  64  88 E5        30.29S
BRUNSWICK      CLOUDY    73  68  83 E10       30.29S
SAINT SIMONS   NOT AVBL

$$

SCZ027-028-034-036>038-045-046-048>050-GAZ119-141-240600-
...LAKE AND SUPPLEMENTAL COASTAL OBSERVATIONS...

STATION/POSITION TIME  TEMP    WIND        PRES    WAVE   SWELL
                       AIR SEA DIR/SP/G            HT/PER HT/PER/DIR
                 (UTC) (F)     (DEG/KT/KT) (MB)    (FT/S) (FT/S/D)
UPR LAKE MARION  NOT AVBL
WINYAH BAY       0400   73     110/ 12     1027.0S
LAKE MURRAY      0500   69     100/  3/  8 1027.4R
ACE BASIN NERRS  NOT AVBL
FORT PULASKI     0500   75 78   90/ 18/ 21 1026.9F
SAPELO ISLAND    0500   75      90/  9     1026.0S

$$

ANZ835-935-AMZ111-154-330-350-352-354-370-450-454-472-240600-
...C-MAN AND BUOY OBSERVATIONS...

STATION/POSITION TIME  TEMP    WIND        PRES    WAVE   SWELL
                       AIR SEA DIR/SP/G            HT/PER HT/PER/DIR
                 (UTC) (F)     (DEG/KT/KT) (MB)    (FT/S) (FT/S/D)
BUOY 41004       0450   75 75   90/ 17/ 19 1026.6F   5/ 6   2/ 9
BUOY 41008       0450   75 75   90/ 16/ 17 1025.4F   5/ 7   2/ 80/ 8
FOLLY BEACH CMAN 0500   74     100/ 15/ 17 1027.5F
CAPERS NEARSHORE 0408   74     110/ 16/ 21 1027.9R
FRIPP NEARSHORE  0400   75      90/ 16/ 19 1026.0F


STATION/POSITION TIME  TEMP    WIND        PRES    WAVE   SWELL
                       AIR SEA DIR/SP/G            HT/PER HT/PER/DIR
                 (UTC) (F)     (DEG/KT/KT) (MB)    (FT/S) (FT/S/D)
5E ST. MARYS GA  0421      78                N/A     5/ 6
FRYING PAN BUOY  0450   75 74  120/ 14/ 17 1028.3F   4/ 5   2/ 80/ 8
BUOY 41025       0450   72 78  100/  8/ 10 1029.2F   3/ 8   2/ 50/ 8
CAPE LOOKOUT NC  0500   71      50/ 10/ 11 1028.6F
BUOY 41002       0450   72 74   80/ 21/ 25 1026.9F   7/ 6
BUOY 41010       0420   78 80   60/ 17/ 19 1023.6F
ST AUGUSTINE FL  0500   77 76  100/ 16/ 17 1025.1F


$$



USA.gov is the U.S. government's official web portal to all federal, state and local government web resources and services.